Location: �bnet
(46.9957°N, 8.4908°E)
Time: 23:29:51
(UTC+00:00)

Cosmos 1833 - Pass Details

Date: 11 May 2021
Orbit: 833 x 865 km, 70.9° (Epoch: 18 June)

Event Time Altitude Azimuth Distance (km) Brightness Sun altitude
Rises 22:59:54 0° 333° (NNW) 3,442 8.5 -24.7°
Reaches altitude 10° 23:02:23 10° 336° (NNW) 2,506 7.6 -24.7°
Maximum altitude 23:08:09 73° 61° (ENE) 904 4.3 -24.8°
Enters shadow 23:09:29 53° 127° (SE) 1,055 4.4 -24.8°
